Terminal Aerodrome Forecast
Issued by NWS

Home | Current Version | Previous Version | Text Only | Print | Product List | Glossary On
Versions: 1 2 3 4 5 6 7 8 9 10 11 12 13
000
FTUS44 KOUN 222320
TAFWWR
TAF
KWWR 222320Z 2300/2324 18010KT P6SM VCSH BKN100
     FM230100 18008KT P6SM SCT100 BKN200
     FM230500 01008KT P6SM SCT090 BKN250=

USA.gov is the U.S. government's official web portal to all federal, state and local government web resources and services.